KOA699 NWWW-YBCG

Flight info

Callsign KOA699
Flight time 2h 33m
Altitude 34000
Route ONIB3E ONIBA ISTEM LAPIP LAMSI LAMS3A
Aircraft A20N/M-SDE2E3FGHIJ1RWXY/LB1

Departure

Time 2026-04-22 13:52
Airport La Tontouta International Airport (NWWW)

Arrival

Time 2026-04-22 16:25
Airport Gold Coast Airport (YBCG)
Time Latitude Longitude Altitude Speed Heading
2026-04-22 13:28 -22.01340 166.21599 49 ft 0 kts 121°
2026-04-22 13:46 -22.01336 166.21593 49 ft 3 kts 121°
2026-04-22 13:46 -22.01326 166.21576 49 ft 3 kts 121°
2026-04-22 13:46 -22.01317 166.21559 48 ft 3 kts 125°
2026-04-22 13:46 -22.01302 166.21546 47 ft 3 kts 163°
2026-04-22 13:47 -22.01285 166.21540 47 ft 3 kts 163°
2026-04-22 13:47 -22.01268 166.21534 49 ft 3 kts 162°
2026-04-22 13:47 -22.01249 166.21531 48 ft 3 kts 197°
2026-04-22 13:47 -22.01242 166.21533 47 ft 0 kts 214°
2026-04-22 13:48 -22.01271 166.21519 45 ft 11 kts 206°
2026-04-22 13:48 -22.01373 166.21455 46 ft 17 kts 212°
2026-04-22 13:49 -22.01432 166.21416 46 ft 3 kts 211°
2026-04-22 13:49 -22.01448 166.21401 47 ft 7 kts 226°
2026-04-22 13:49 -22.01457 166.21312 49 ft 18 kts 295°
2026-04-22 13:49 -22.01362 166.21142 46 ft 37 kts 301°
2026-04-22 13:50 -22.01210 166.20871 47 ft 41 kts 301°
2026-04-22 13:50 -22.01076 166.20625 46 ft 35 kts 300°
2026-04-22 13:50 -22.00952 166.20407 43 ft 35 kts 301°
2026-04-22 13:50 -22.00816 166.20169 39 ft 39 kts 302°
2026-04-22 13:51 -22.00688 166.20023 38 ft 15 kts 325°
2026-04-22 13:51 -22.00706 166.19986 36 ft 14 kts 172°
2026-04-22 13:51 -22.00846 166.20227 40 ft 81 kts 121°
2026-04-22 13:51 -22.01299 166.21034 49 ft 169 kts 121°
2026-04-22 13:52 -22.02034 166.22300 600 ft 212 kts 130°
2026-04-22 13:52 -22.03279 166.23061 2079 ft 212 kts 175°
2026-04-22 13:52 -22.04721 166.22671 3238 ft 225 kts 219°
2026-04-22 13:52 -22.05587 166.21238 4365 ft 241 kts 254°
2026-04-22 13:53 -22.05940 166.19654 5341 ft 254 kts 256°
2026-04-22 14:14 -22.05990 166.19426 5474 ft 256 kts 256°
2026-04-22 14:14 -22.06439 166.17538 6568 ft 270 kts 253°
2026-04-22 14:15 -22.06981 166.15577 7840 ft 275 kts 250°
2026-04-22 14:15 -22.07599 166.13607 9159 ft 279 kts 248°
2026-04-22 14:15 -22.08285 166.11643 10442 ft 283 kts 245°
2026-04-22 14:15 -22.09065 166.09611 11246 ft 303 kts 244°
2026-04-22 14:16 -22.09952 166.07471 12055 ft 321 kts 243°
2026-04-22 14:16 -22.10925 166.05236 12894 ft 337 kts 243°
2026-04-22 14:16 -22.11968 166.02912 13740 ft 351 kts 243°
2026-04-22 14:16 -22.13064 166.00517 14640 ft 360 kts 244°
2026-04-22 14:17 -22.14193 165.98079 15680 ft 366 kts 245°
2026-04-22 14:17 -22.15344 165.95607 16592 ft 373 kts 246°
2026-04-22 14:17 -22.16522 165.93078 17431 ft 381 kts 247°
2026-04-22 14:17 -22.17704 165.90489 18255 ft 388 kts 246°
2026-04-22 14:18 -22.18903 165.87864 19156 ft 392 kts 247°
2026-04-22 14:18 -22.20119 165.85210 20022 ft 396 kts 247°
2026-04-22 14:18 -22.21347 165.82532 20829 ft 401 kts 247°
2026-04-22 14:18 -22.22592 165.79823 21633 ft 404 kts 246°
2026-04-22 14:19 -22.23833 165.77125 22378 ft 408 kts 247°
2026-04-22 14:19 -22.25103 165.74369 23116 ft 412 kts 247°
2026-04-22 14:19 -22.26383 165.71591 23822 ft 416 kts 246°
2026-04-22 14:19 -22.27676 165.68783 24486 ft 419 kts 246°
2026-04-22 14:20 -22.30297 165.63109 25827 ft 425 kts 247°
2026-04-22 14:20 -22.31619 165.60249 26451 ft 428 kts 248°
2026-04-22 14:20 -22.32949 165.57374 27216 ft 426 kts 248°
2026-04-22 14:21 -22.35573 165.51708 28895 ft 418 kts 248°
2026-04-22 14:21 -22.36867 165.48914 29722 ft 414 kts 249°
2026-04-22 14:22 -22.39419 165.43395 31206 ft 407 kts 249°
2026-04-22 14:22 -22.40676 165.40667 31903 ft 404 kts 249°
2026-04-22 14:22 -22.43166 165.35260 33233 ft 399 kts 250°
2026-04-22 14:23 -22.44388 165.32609 33624 ft 389 kts 251°
2026-04-22 14:23 -22.45593 165.29990 33827 ft 390 kts 251°
2026-04-22 14:23 -22.46803 165.27337 33914 ft 396 kts 251°
2026-04-22 14:24 -22.49236 165.21990 33963 ft 395 kts 251°
2026-04-22 14:24 -22.51655 165.16682 33974 ft 393 kts 251°
2026-04-22 14:25 -22.54055 165.11408 33978 ft 394 kts 251°
2026-04-22 14:25 -22.56478 165.06082 33977 ft 394 kts 251°
2026-04-22 14:26 -22.58897 165.00768 33978 ft 393 kts 251°
2026-04-22 14:26 -22.61315 164.95452 33980 ft 394 kts 251°
2026-04-22 14:27 -22.63736 164.90123 33979 ft 394 kts 251°
2026-04-22 14:27 -22.66151 164.84805 33979 ft 393 kts 251°
2026-04-22 14:28 -22.68525 164.79478 33980 ft 393 kts 249°
2026-04-22 14:28 -22.70931 164.74164 33980 ft 393 kts 249°
2026-04-22 14:29 -22.73326 164.68892 33980 ft 393 kts 249°
2026-04-22 14:29 -22.75737 164.63577 33981 ft 393 kts 249°
2026-04-22 14:30 -22.78146 164.58258 33980 ft 393 kts 249°
2026-04-22 14:30 -22.80551 164.52941 33980 ft 392 kts 249°
2026-04-22 14:31 -22.82951 164.47628 33981 ft 393 kts 249°
2026-04-22 14:31 -22.85352 164.42303 33982 ft 393 kts 249°
2026-04-22 14:32 -22.87751 164.36975 33980 ft 393 kts 249°
2026-04-22 14:32 -22.90144 164.31656 33981 ft 392 kts 249°
2026-04-22 14:33 -22.92537 164.26329 33982 ft 393 kts 249°
2026-04-22 14:33 -22.94930 164.20996 33980 ft 393 kts 249°
2026-04-22 14:34 -22.97319 164.15668 33981 ft 392 kts 249°
2026-04-22 14:34 -22.99705 164.10341 33982 ft 393 kts 249°
2026-04-22 14:35 -23.02092 164.05001 33981 ft 393 kts 249°
2026-04-22 14:35 -23.04478 163.99661 33980 ft 392 kts 249°
2026-04-22 14:36 -23.06841 163.94368 33981 ft 392 kts 249°
2026-04-22 14:36 -23.09220 163.89029 33981 ft 393 kts 249°
2026-04-22 14:37 -23.11602 163.83680 33980 ft 393 kts 249°
2026-04-22 14:37 -23.13975 163.78346 33981 ft 392 kts 249°
2026-04-22 14:38 -23.16319 163.72967 33982 ft 395 kts 247°
2026-04-22 14:38 -23.18295 163.68506 33981 ft 393 kts 247°
2026-04-22 14:39 -23.20672 163.63162 33981 ft 393 kts 247°
2026-04-22 14:39 -23.23054 163.57802 33981 ft 394 kts 247°
2026-04-22 14:40 -23.26621 163.49759 33981 ft 393 kts 247°
2026-04-22 14:40 -23.28993 163.44399 33982 ft 394 kts 247°
2026-04-22 14:41 -23.31365 163.39027 33982 ft 394 kts 247°
2026-04-22 14:41 -23.33734 163.33658 33980 ft 393 kts 247°
2026-04-22 14:42 -23.36097 163.28292 33982 ft 393 kts 247°
2026-04-22 14:42 -23.38462 163.22917 33983 ft 394 kts 247°
2026-04-22 14:43 -23.40806 163.17582 33981 ft 393 kts 247°
2026-04-22 14:43 -23.43163 163.12212 33982 ft 393 kts 247°
2026-04-22 14:44 -23.45522 163.06831 33982 ft 394 kts 247°
2026-04-22 14:44 -23.47878 163.01448 33982 ft 393 kts 247°
2026-04-22 14:45 -23.50229 162.96074 33982 ft 393 kts 247°
2026-04-22 14:45 -23.52579 162.90693 33982 ft 394 kts 247°
2026-04-22 14:46 -23.54935 162.85293 33981 ft 394 kts 247°
2026-04-22 14:46 -23.57282 162.79908 33981 ft 393 kts 247°
2026-04-22 14:47 -23.59610 162.74560 33981 ft 393 kts 247°
2026-04-22 14:47 -23.61943 162.69171 33981 ft 390 kts 246°
2026-04-22 14:48 -23.64232 162.63868 33984 ft 386 kts 246°
2026-04-22 14:48 -23.66539 162.58555 33981 ft 389 kts 246°
2026-04-22 14:49 -23.68853 162.53223 33980 ft 388 kts 246°
2026-04-22 14:49 -23.71155 162.47912 33981 ft 387 kts 246°
2026-04-22 14:50 -23.73462 162.42583 33982 ft 389 kts 246°
2026-04-22 14:50 -23.75765 162.37252 33980 ft 388 kts 246°
2026-04-22 14:51 -23.78063 162.31928 33981 ft 387 kts 246°
2026-04-22 14:51 -23.80359 162.26601 33983 ft 388 kts 246°
2026-04-22 14:52 -23.82660 162.21256 33980 ft 388 kts 246°
2026-04-22 14:52 -23.84952 162.15923 33982 ft 387 kts 246°
2026-04-22 14:53 -23.87242 162.10590 33982 ft 388 kts 246°
2026-04-22 14:53 -23.89518 162.05283 33981 ft 388 kts 246°
2026-04-22 14:54 -23.91807 161.99940 33980 ft 387 kts 246°
2026-04-22 14:54 -23.94091 161.94604 33981 ft 388 kts 246°
2026-04-22 14:55 -23.96377 161.89253 33981 ft 389 kts 246°
2026-04-22 14:55 -23.98661 161.83904 33981 ft 388 kts 246°
2026-04-22 14:56 -24.00938 161.78563 33981 ft 388 kts 246°
2026-04-22 14:56 -24.03217 161.73211 33982 ft 388 kts 246°
2026-04-22 14:57 -24.05497 161.67851 33980 ft 388 kts 246°
2026-04-22 14:57 -24.07760 161.62503 33981 ft 386 kts 246°
2026-04-22 14:58 -24.10012 161.57181 33981 ft 385 kts 246°
2026-04-22 14:58 -24.12274 161.51850 33981 ft 387 kts 246°
2026-04-22 14:59 -24.14539 161.46506 33981 ft 386 kts 246°
2026-04-22 14:59 -24.16797 161.41174 33981 ft 386 kts 246°
2026-04-22 15:00 -24.19037 161.35874 33983 ft 387 kts 246°
2026-04-22 15:00 -24.21294 161.30526 33981 ft 386 kts 246°
2026-04-22 15:01 -24.23545 161.25185 33981 ft 386 kts 246°
2026-04-22 15:01 -24.25793 161.19844 33982 ft 386 kts 246°
2026-04-22 15:02 -24.28046 161.14486 33981 ft 387 kts 246°
2026-04-22 15:02 -24.30290 161.09141 33982 ft 386 kts 246°
2026-04-22 15:03 -24.32533 161.03792 33981 ft 386 kts 246°
2026-04-22 15:03 -24.34778 160.98433 33981 ft 387 kts 246°
2026-04-22 15:04 -24.37019 160.93078 33980 ft 386 kts 246°
2026-04-22 15:04 -24.39254 160.87728 33983 ft 386 kts 246°
2026-04-22 15:05 -24.41491 160.82369 33981 ft 387 kts 246°
2026-04-22 15:05 -24.43728 160.77002 33980 ft 386 kts 246°
2026-04-22 15:06 -24.45957 160.71646 33981 ft 386 kts 246°
2026-04-22 15:06 -24.48186 160.66286 33982 ft 386 kts 246°
2026-04-22 15:07 -24.50404 160.60946 33980 ft 386 kts 246°
2026-04-22 15:07 -24.52624 160.55579 33980 ft 385 kts 246°
2026-04-22 15:08 -24.54835 160.50234 33981 ft 384 kts 246°
2026-04-22 15:08 -24.57052 160.44884 33981 ft 386 kts 246°
2026-04-22 15:09 -24.59307 160.39540 33982 ft 385 kts 243°
2026-04-22 15:09 -24.61979 160.34439 33982 ft 385 kts 240°
2026-04-22 15:10 -24.64778 160.29415 33981 ft 386 kts 239°
2026-04-22 15:10 -24.67607 160.24392 33981 ft 386 kts 239°
2026-04-22 15:11 -24.70431 160.19379 33982 ft 385 kts 239°
2026-04-22 15:11 -24.73253 160.14362 33982 ft 386 kts 239°
2026-04-22 15:12 -24.76077 160.09333 33981 ft 386 kts 239°
2026-04-22 15:12 -24.78895 160.04308 33981 ft 385 kts 240°
2026-04-22 15:13 -24.81709 159.99283 33981 ft 386 kts 240°
2026-04-22 15:13 -24.84503 159.94284 33981 ft 386 kts 240°
2026-04-22 15:14 -24.87317 159.89245 33981 ft 386 kts 240°
2026-04-22 15:14 -24.90122 159.84217 33981 ft 385 kts 240°
2026-04-22 15:15 -24.92929 159.79179 33981 ft 386 kts 240°
2026-04-22 15:15 -24.95736 159.74134 33980 ft 386 kts 240°
2026-04-22 15:16 -24.98536 159.69099 33982 ft 385 kts 240°
2026-04-22 15:16 -25.01335 159.64058 33981 ft 386 kts 240°
2026-04-22 15:17 -25.04138 159.59007 33980 ft 386 kts 240°
2026-04-22 15:17 -25.06926 159.53968 34063 ft 383 kts 239°
2026-04-22 15:18 -25.09702 159.48947 34109 ft 385 kts 239°
2026-04-22 15:18 -25.12493 159.43900 34115 ft 385 kts 239°
2026-04-22 15:19 -25.15273 159.38871 34117 ft 383 kts 239°
2026-04-22 15:19 -25.18050 159.33838 34118 ft 384 kts 239°
2026-04-22 15:20 -25.20832 159.28792 34117 ft 384 kts 240°
2026-04-22 15:20 -25.23607 159.23755 34117 ft 383 kts 240°
2026-04-22 15:21 -25.26378 159.18716 34118 ft 384 kts 240°
2026-04-22 15:21 -25.29155 159.13663 34117 ft 385 kts 240°
2026-04-22 15:22 -25.31908 159.08648 34117 ft 384 kts 240°
2026-04-22 15:22 -25.34673 159.03605 34117 ft 384 kts 240°
2026-04-22 15:23 -25.37443 158.98546 34118 ft 385 kts 240°
2026-04-22 15:23 -25.40211 158.93487 34117 ft 384 kts 240°
2026-04-22 15:24 -25.42972 158.88435 34118 ft 384 kts 240°
2026-04-22 15:24 -25.45735 158.83373 34118 ft 385 kts 240°
2026-04-22 15:25 -25.48499 158.78306 34117 ft 384 kts 240°
2026-04-22 15:25 -25.50791 158.74097 34117 ft 384 kts 240°
2026-04-22 15:26 -25.53993 158.68214 34118 ft 384 kts 240°
2026-04-22 15:26 -25.56753 158.63136 34117 ft 385 kts 240°
2026-04-22 15:27 -25.59043 158.58919 34117 ft 384 kts 240°
2026-04-22 15:27 -25.61784 158.53855 34116 ft 381 kts 239°
2026-04-22 15:28 -25.64489 158.48850 34118 ft 378 kts 239°
2026-04-22 15:28 -25.67204 158.43834 34118 ft 381 kts 239°
2026-04-22 15:29 -25.69928 158.38800 34117 ft 380 kts 239°
2026-04-22 15:30 -25.73995 158.31274 34118 ft 380 kts 239°
2026-04-22 15:30 -25.76712 158.26236 34117 ft 380 kts 239°
2026-04-22 15:31 -25.79424 158.21203 34117 ft 379 kts 239°
2026-04-22 15:31 -25.82130 158.16174 34118 ft 380 kts 239°
2026-04-22 15:32 -25.84838 158.11136 34117 ft 380 kts 239°
2026-04-22 15:32 -25.87546 158.06092 34117 ft 380 kts 239°
2026-04-22 15:33 -25.90228 158.01091 34118 ft 379 kts 239°
2026-04-22 15:33 -25.92932 157.96045 34118 ft 380 kts 239°
2026-04-22 15:34 -25.95634 157.90996 34116 ft 380 kts 239°
2026-04-22 15:34 -25.98329 157.85954 34117 ft 379 kts 239°
2026-04-22 15:35 -26.01023 157.80908 34118 ft 380 kts 239°
2026-04-22 15:35 -26.03721 157.75848 34117 ft 380 kts 239°
2026-04-22 15:36 -26.06415 157.70792 34117 ft 379 kts 240°
2026-04-22 15:36 -26.09101 157.65745 34118 ft 380 kts 240°
2026-04-22 15:37 -26.11792 157.60682 34117 ft 380 kts 240°
2026-04-22 15:37 -26.14481 157.55618 34117 ft 379 kts 240°
2026-04-22 15:38 -26.17156 157.50568 34117 ft 378 kts 239°
2026-04-22 15:38 -26.21166 157.42995 34118 ft 379 kts 239°
2026-04-22 15:39 -26.23843 157.37935 34117 ft 379 kts 239°
2026-04-22 15:39 -26.26512 157.32883 34117 ft 378 kts 240°
2026-04-22 15:40 -26.29183 157.27823 34118 ft 379 kts 240°
2026-04-22 15:40 -26.31854 157.22755 34117 ft 379 kts 240°
2026-04-22 15:41 -26.34519 157.17694 34117 ft 378 kts 240°
2026-04-22 15:41 -26.37180 157.12633 34117 ft 379 kts 240°
2026-04-22 15:42 -26.39829 157.07590 34117 ft 379 kts 240°
2026-04-22 15:42 -26.42490 157.02520 34117 ft 378 kts 240°
2026-04-22 15:43 -26.45147 156.97449 34118 ft 379 kts 240°
2026-04-22 15:43 -26.47808 156.92368 34118 ft 379 kts 240°
2026-04-22 15:44 -26.50464 156.87288 34117 ft 378 kts 240°
2026-04-22 15:44 -26.53117 156.82210 34118 ft 378 kts 240°
2026-04-22 15:45 -26.55769 156.77127 34117 ft 379 kts 240°
2026-04-22 15:45 -26.58421 156.72036 34117 ft 379 kts 240°
2026-04-22 15:46 -26.61067 156.66954 34117 ft 378 kts 240°
2026-04-22 15:46 -26.63712 156.61866 34118 ft 379 kts 240°
2026-04-22 15:47 -26.66359 156.56769 34117 ft 379 kts 240°
2026-04-22 15:47 -26.69003 156.51672 34118 ft 381 kts 240°
2026-04-22 15:48 -26.71654 156.46556 34117 ft 383 kts 240°
2026-04-22 15:48 -26.74315 156.41414 34117 ft 381 kts 240°
2026-04-22 15:49 -26.76969 156.36280 34118 ft 382 kts 240°
2026-04-22 15:49 -26.79630 156.31125 34117 ft 382 kts 240°
2026-04-22 15:50 -26.82285 156.25977 34117 ft 381 kts 240°
2026-04-22 15:50 -26.84933 156.20835 34118 ft 382 kts 240°
2026-04-22 15:51 -26.87587 156.15677 34117 ft 382 kts 240°
2026-04-22 15:51 -26.90237 156.10518 34117 ft 381 kts 240°
2026-04-22 15:52 -26.92863 156.05399 34118 ft 381 kts 240°
2026-04-22 15:52 -26.95506 156.00241 34118 ft 382 kts 240°
2026-04-22 15:53 -26.98178 155.95046 34116 ft 382 kts 238°
2026-04-22 15:53 -27.01446 155.90405 34118 ft 382 kts 231°
2026-04-22 15:54 -27.05008 155.85951 34117 ft 384 kts 229°
2026-04-22 15:54 -27.08638 155.81557 34117 ft 384 kts 229°
2026-04-22 15:55 -27.12290 155.77192 34117 ft 383 kts 229°
2026-04-22 15:55 -27.15952 155.72843 34117 ft 384 kts 229°
2026-04-22 15:56 -27.19628 155.68490 34117 ft 384 kts 229°
2026-04-22 15:56 -27.23305 155.64144 34117 ft 383 kts 229°
2026-04-22 15:57 -27.26978 155.59804 34118 ft 383 kts 229°
2026-04-22 15:57 -27.30658 155.55451 34118 ft 385 kts 228°
2026-04-22 15:58 -27.34359 155.51073 34117 ft 386 kts 228°
2026-04-22 15:58 -27.38053 155.46707 34117 ft 384 kts 228°
2026-04-22 15:59 -27.41714 155.42375 34116 ft 380 kts 228°
2026-04-22 15:59 -27.43480 155.40287 34113 ft 356 kts 230°
2026-04-22 15:59 -27.44748 155.38020 34146 ft 337 kts 248°
2026-04-22 16:00 -27.46127 155.32971 34125 ft 340 kts 252°
2026-04-22 16:00 -27.47438 155.27825 34118 ft 342 kts 251°
2026-04-22 16:01 -27.48802 155.22701 34118 ft 340 kts 251°
2026-04-22 16:01 -27.50221 155.17614 34119 ft 341 kts 250°
2026-04-22 16:02 -27.51687 155.12526 34118 ft 342 kts 250°
2026-04-22 16:02 -27.53178 155.07453 34117 ft 340 kts 250°
2026-04-22 16:03 -27.54681 155.02396 34118 ft 341 kts 249°
2026-04-22 16:03 -27.56197 154.97328 34118 ft 341 kts 249°
2026-04-22 16:04 -27.57704 154.92306 34117 ft 341 kts 249°
2026-04-22 16:04 -27.59224 154.87247 34118 ft 341 kts 249°
2026-04-22 16:05 -27.60745 154.82185 33819 ft 340 kts 249°
2026-04-22 16:05 -27.61499 154.79671 33288 ft 337 kts 249°
2026-04-22 16:05 -27.62249 154.77174 32618 ft 335 kts 249°
2026-04-22 16:06 -27.62990 154.74701 31969 ft 331 kts 249°
2026-04-22 16:06 -27.63724 154.72254 31339 ft 328 kts 249°
2026-04-22 16:06 -27.64451 154.69830 30709 ft 324 kts 249°
2026-04-22 16:06 -27.65168 154.67433 30073 ft 321 kts 249°
2026-04-22 16:07 -27.65879 154.65058 29440 ft 318 kts 249°
2026-04-22 16:07 -27.66584 154.62703 28785 ft 316 kts 249°
2026-04-22 16:07 -27.67287 154.60356 28111 ft 315 kts 250°
2026-04-22 16:07 -27.67991 154.58011 27304 ft 318 kts 250°
2026-04-22 16:08 -27.68699 154.55650 26643 ft 317 kts 250°
2026-04-22 16:08 -27.69399 154.53301 26016 ft 315 kts 250°
2026-04-22 16:08 -27.70094 154.50966 25399 ft 313 kts 250°
2026-04-22 16:08 -27.70784 154.48647 24768 ft 311 kts 250°
2026-04-22 16:09 -27.71472 154.46340 24143 ft 309 kts 250°
2026-04-22 16:09 -27.72155 154.44042 23532 ft 308 kts 250°
2026-04-22 16:09 -27.72823 154.41793 22933 ft 306 kts 250°
2026-04-22 16:09 -27.73494 154.39521 22332 ft 304 kts 250°
2026-04-22 16:10 -27.74160 154.37269 21741 ft 302 kts 250°
2026-04-22 16:10 -27.74821 154.35027 21141 ft 300 kts 249°
2026-04-22 16:10 -27.75265 154.33521 20749 ft 299 kts 249°
2026-04-22 16:10 -27.76133 154.30585 19960 ft 297 kts 249°
2026-04-22 16:11 -27.76785 154.28378 19383 ft 295 kts 249°
2026-04-22 16:11 -27.77432 154.26185 18783 ft 294 kts 249°
2026-04-22 16:11 -27.78092 154.23962 17728 ft 306 kts 249°
2026-04-22 16:11 -27.78784 154.21631 16584 ft 320 kts 249°
2026-04-22 16:12 -27.79487 154.19247 15841 ft 319 kts 249°
2026-04-22 16:12 -27.80183 154.16879 15113 ft 317 kts 249°
2026-04-22 16:12 -27.80871 154.14530 14414 ft 314 kts 248°
2026-04-22 16:12 -27.81557 154.12193 13699 ft 312 kts 248°
2026-04-22 16:13 -27.82239 154.09873 12990 ft 310 kts 248°
2026-04-22 16:13 -27.82916 154.07567 12269 ft 309 kts 248°
2026-04-22 16:13 -27.83591 154.05272 11581 ft 307 kts 248°
2026-04-22 16:13 -27.84260 154.02993 10884 ft 305 kts 248°
2026-04-22 16:14 -27.84926 154.00727 10202 ft 303 kts 248°
2026-04-22 16:14 -27.85588 153.98475 9515 ft 301 kts 248°
2026-04-22 16:14 -27.86023 153.96990 9078 ft 300 kts 248°
2026-04-22 16:14 -27.86675 153.94765 8444 ft 297 kts 248°
2026-04-22 16:15 -27.87320 153.92561 7778 ft 294 kts 248°
2026-04-22 16:15 -27.87961 153.90374 7156 ft 291 kts 248°
2026-04-22 16:15 -27.88597 153.88205 6506 ft 290 kts 248°
2026-04-22 16:15 -27.89226 153.86053 5874 ft 287 kts 248°
2026-04-22 16:16 -27.89850 153.83918 5239 ft 285 kts 248°
2026-04-22 16:16 -27.90468 153.81799 4620 ft 282 kts 248°
2026-04-22 16:16 -27.91083 153.79690 4051 ft 289 kts 248°
2026-04-22 16:16 -27.91700 153.77567 4010 ft 281 kts 248°
2026-04-22 16:17 -27.92300 153.75499 3997 ft 266 kts 248°
2026-04-22 16:17 -27.92846 153.73595 3994 ft 243 kts 247°
2026-04-22 16:17 -27.93344 153.71849 3994 ft 223 kts 247°
2026-04-22 16:17 -27.93812 153.70265 3990 ft 222 kts 248°
2026-04-22 16:18 -27.94310 153.68612 3998 ft 221 kts 248°
2026-04-22 16:18 -27.94794 153.66970 4000 ft 220 kts 249°
2026-04-22 16:18 -27.95275 153.65325 4006 ft 220 kts 249°
2026-04-22 16:18 -27.95746 153.63699 4006 ft 221 kts 249°
2026-04-22 16:19 -27.96223 153.62050 4005 ft 220 kts 249°
2026-04-22 16:19 -27.96698 153.60406 4004 ft 220 kts 249°
2026-04-22 16:19 -27.97174 153.58757 4004 ft 221 kts 249°
2026-04-22 16:19 -27.97651 153.57107 4004 ft 220 kts 249°
2026-04-22 16:20 -27.98126 153.55461 3962 ft 221 kts 249°
2026-04-22 16:20 -27.98603 153.53811 3710 ft 221 kts 249°
2026-04-22 16:20 -27.99081 153.52158 3538 ft 220 kts 249°
2026-04-22 16:20 -27.99555 153.50516 3455 ft 220 kts 249°
2026-04-22 16:21 -28.00030 153.48867 3272 ft 221 kts 249°
2026-04-22 16:21 -28.00504 153.47220 3177 ft 220 kts 249°
2026-04-22 16:21 -28.00980 153.45572 3135 ft 221 kts 249°
2026-04-22 16:21 -28.01466 153.43929 3115 ft 219 kts 242°
2026-04-22 16:22 -28.03674 153.42822 2763 ft 182 kts 160°
2026-04-22 16:22 -28.04845 153.43317 2448 ft 176 kts 155°
2026-04-22 16:22 -28.05918 153.43895 2189 ft 172 kts 152°
2026-04-22 16:23 -28.08010 153.45210 1725 ft 172 kts 152°
2026-04-22 16:23 -28.09059 153.45881 1497 ft 173 kts 152°
2026-04-22 16:23 -28.10057 153.46517 1276 ft 148 kts 153°
2026-04-22 16:24 -28.10910 153.47060 1097 ft 140 kts 154°
2026-04-22 16:24 -28.12597 153.48118 739 ft 138 kts 154°
2026-04-22 16:24 -28.13438 153.48649 549 ft 138 kts 153°
2026-04-22 16:25 -28.14274 153.49181 381 ft 139 kts 153°
2026-04-22 16:25 -28.15918 153.50238 30 ft 126 kts 151°
2026-04-22 16:25 -28.16430 153.50567 26 ft 44 kts 150°
2026-04-22 16:26 -28.16563 153.50689 26 ft 17 kts 102°
2026-04-22 16:26 -28.16533 153.50781 27 ft 8 kts 61°
2026-04-22 16:26 -28.16503 153.50845 25 ft 12 kts 61°
2026-04-22 16:26 -28.16491 153.50959 27 ft 19 kts 133°
2026-04-22 16:27 -28.16619 153.51047 26 ft 23 kts 152°
2026-04-22 16:27 -28.16699 153.51123 27 ft 8 kts 77°
2026-04-22 16:27 -28.16675 153.51177 26 ft 7 kts 61°
2026-04-22 16:27 -28.16666 153.51196 27 ft 0 kts 62°